Lid_Strength_Index
5 8 10 8 7 7 8 9 9 8 7 8 9 8 7 6 6 6 5 4 4 3 2 1 2 1 1 1 1 1 1 1 1 1 1 1 2 1 0 -0 -1 -1 -1 -1
7 10 7 6 7 8 8 9 9 7 7 7 8 9 7 7 7 6 6 5 4 3 3 2 1 1 1 1 1 2 1 1 1 1 1 0 1 0 0 -0 -0 -1 -1 -1
8 7 6 8 9 10 9 10 9 9 7 7 8 9 8 7 6 6 5 5 5 4 3 2 2 1 1 2 2 2 1 1 1 0 0 0 0 0 1 0 0 -0 -1 -1
7 6 7 9 10 8 12 8 8 9 11 13 8 13 8 7 7 6 6 5 5 5 3 2 2 2 1 1 1 1 1 1 1 0 1 1 2 2 1 1 -0 -0 -1 -1
8 8 8 9 8 7 10 8 9 10 12 11 11 12 9 7 8 7 6 5 5 5 4 3 2 1 1 1 1 1 1 1 1 1 1 1 2 1 1 0 0 -0 -0 -1
7 5 6 7 6 6 6 8 9 10 12 18 12 12 11 9 7 6 5 5 5 5 4 3 2 1 1 1 1 1 1 1 1 1 1 1 2 1 1 1 1 1 0 0
8 8 6 6 8 6 7 11 18 18 19 18 10 12 10 7 6 6 5 5 4 4 4 4 3 2 1 1 1 2 2 2 1 1 1 1 1 1 1 2 1 1 1 1
12 13 8 6 8 9 9 9 17 20 20 16 10 14 10 6 5 4 4 4 3 4 4 3 3 2 2 1 1 1 2 2 2 2 1 1 0 1 1 1 1 1 1 1
13 12 7 6 6 7 9 11 8 16 14 16 13 9 7 6 6 5 5 4 4 3 3 3 2 2 1 1 1 1 1 2 2 2 1 1 1 1 1 0 0 0 0 1
10 15 8 8 7 7 8 8 14 14 20 20 13 12 11 8 7 6 6 5 4 3 3 3 2 2 1 1 1 1 1 2 1 1 1 1 1 1 0 0 1 1 1 0
9 13 11 9 12 13 12 11 11 12 13 15 15 13 8 8 7 7 6 5 5 4 4 3 3 2 2 1 1 1 1 1 2 1 1 1 1 1 0 1 1 1 0 0
8 12 14 12 8 8 10 13 12 16 14 12 12 12 6 6 6 6 6 5 4 4 3 3 3 2 2 2 1 1 1 1 1 1 1 1 1 1 1 1 1 0 1 -0
9 12 16 13 13 9 11 10 11 13 13 16 16 13 6 6 6 6 6 5 4 4 3 3 3 3 2 2 2 1 1 1 1 1 1 1 1 1 2 1 1 0 0 0
8 13 15 16 13 11 12 10 10 11 16 14 13 11 8 7 6 6 5 4 4 4 4 3 3 3 2 2 2 2 1 1 1 1 1 2 2 2 2 1 1 1 0 0
8 14 11 10 10 10 10 10 10 11 11 14 11 11 9 7 7 6 5 5 5 5 4 4 3 3 3 2 2 2 1 1 1 1 2 2 2 1 1 1 1 1 1 1
10 13 12 13 11 11 12 11 11 10 10 10 10 10 6 6 6 6 7 6 6 6 5 4 3 3 3 2 2 2 1 1 1 2 2 2 2 2 2 2 1 2 1 2
13 12 13 15 11 12 16 14 13 13 11 12 15 11 8 9 9 8 7 7 7 6 6 5 4 4 3 3 2 2 2 1 1 2 3 4 3 3 3 4 3 3 3 3
12 13 13 15 13 20 14 10 11 13 13 12 11 10 9 9 8 7 7 6 7 7 6 5 4 3 3 2 2 2 1 2 3 4 5 5 4 5 5 5 4 3 3 4
10 14 15 17 16 14 14 12 13 15 15 11 13 12 10 8 8 9 7 7 7 7 6 6 4 3 3 2 2 2 3 3 5 6 6 6 6 6 6 4 4 5 5 5
9 12 15 15 18 20 14 12 11 12 16 11 11 11 12 12 12 13 9 8 8 7 7 7 5 3 3 3 3 4 7 6 6 7 7 7 7 6 6 6 5 5 5 6
12 13 15 15 17 14 12 12 11 17 15 11 10 12 13 14 13 11 10 10 9 8 8 7 7 7 7 5 6 7 6 8 8 6 7 6 6 7 7 7 5 6 6 6
14 15 15 15 16 18 12 13 16 13 10 9 10 11 13 12 12 12 11 11 10 10 9 8 10 10 8 7 8 9 9 8 9 9 8 9 9 9 8 7 5 6 7 8
14 14 16 15 14 11 11 14 9 8 9 9 10 10 11 12 12 11 12 11 11 10 9 9 9 11 11 10 9 10 9 8 9 10 10 9 9 9 8 7 7 8 8 8
12 11 13 13 12 12 13 11 9 9 9 9 9 9 10 12 12 12 11 11 11 11 11 10 9 11 12 11 10 8 8 8 9 10 10 9 10 10 8 8 8 8 8 9
12 11 13 13 12 12 12 11 10 9 9 9 9 10 10 12 12 12 12 11 11 11 11 11 11 10 12 11 11 10 9 8 9 9 9 9 9 9 10 10 9 9 10 8
10 11 13 14 12 13 13 11 10 10 10 10 10 11 10 11 12 11 11 11 11 11 11 12 11 11 11 11 13 11 10 10 10 11 11 11 10 10 11 12 12 15 14 13